Weather History for Cairo, IL

Change the Weather History Date:

Sunday, September 22, 2013

  Actual Average Record
Temperature  
Mean Temperature 64 °F -  
Max Temperature 78 °F 78 °F 93 °F (1955)
Min Temperature 49 °F 58 °F 40 °F (1983)
Degree Days  
Heating Degree Days 2    
Growing Degree Days 14 (Base 50)    
Moisture  
Dew Point 51 °F    
Average Humidity 69    
Maximum Humidity 91    
Minimum Humidity 37    
Precipitation  
Precipitation 0.01 in - - ()
Sea Level Pressure  
Sea Level Pressure 29.95 in    
Wind  
Wind Speed 2 mph (NE)    
Max Wind Speed 9 mph    
Max Gust Speed -    
Visibility 10 miles    
Events      
Averages and records for this station are not official NWS values.
T = Trace of Precipitation, MM = Missing Value Source: NWS Daily Summary

Daily Weather History Graph

Daily Weather History Graph

Search for Another Location

Airport:

Trip Planner

Search our weather history database for the weather conditions in past years. The results will help you decide how hot, cold, wet, or windy it might be!

Date:

Astronomy

Sep. 22, 2013 Rise Set
Actual Time 6:44 AM CDT 6:53 PM CDT
Civil Twilight 6:19 AM CDT 7:19 PM CDT
Nautical Twilight 5:48 AM CDT 7:49 PM CDT
Astronomical Twilight 5:17 AM CDT 8:20 PM CDT
Moon 8:49 PM CDT (9/22) 9:59 AM CDT (9/22)
Length of Visible Light 13h 00m
Length of Day
12h 08m
Waning Gibbous, 88% of the Moon is Illuminated
Sep 22
Waning Gibbous
Sep 26
Last Quarter
Oct 4
New
Oct 11
First Quarter
Oct 18
Full

Hourly Weather History & Observations

Time (CDT) Temp. Dew Point Humidity Pressure Visibility Wind Dir Wind Speed Gust Speed Precip Events Conditions
12:15 AM 52.7 °F 50.0 °F 91% 29.92 in 10.0 mi Calm Calm - N/A   Clear
12:35 AM 54.5 °F 51.8 °F 91% 29.92 in 10.0 mi Calm Calm - N/A   Clear
12:55 AM 55.9 °F 53.1 °F 90% 29.93 in 10.0 mi Calm Calm - N/A   Clear
1:15 AM 56.3 °F 52.5 °F 87% 29.93 in 10.0 mi North 3.5 mph - N/A   Clear
1:35 AM 55.9 °F 51.6 °F 85% 29.93 in 10.0 mi North 3.5 mph - N/A   Clear
1:55 AM 56.3 °F 50.9 °F 82% 29.93 in 10.0 mi North 3.5 mph - N/A   Clear
2:15 AM 57.2 °F 51.8 °F 82% 29.93 in 10.0 mi North 4.6 mph - N/A   Clear
2:35 AM 57.2 °F 51.1 °F 80% 29.93 in 10.0 mi Calm Calm - N/A   Clear
2:55 AM 56.3 °F 49.8 °F 79% 29.92 in 10.0 mi NNE 3.5 mph - N/A   Clear
3:15 AM 54.7 °F 48.9 °F 81% 29.93 in 10.0 mi Calm Calm - N/A   Clear
3:35 AM 53.1 °F 47.5 °F 81% 29.93 in 10.0 mi Calm Calm - N/A   Clear
3:55 AM 51.1 °F 46.6 °F 85% 29.93 in 10.0 mi Calm Calm - N/A   Clear
4:15 AM 51.8 °F 47.7 °F 86% 29.93 in 10.0 mi Calm Calm - N/A   Clear
4:35 AM 51.8 °F 48.2 °F 88% 29.93 in 10.0 mi Calm Calm - N/A   Clear
4:55 AM 51.4 °F 48.0 °F 88% 29.94 in 10.0 mi Calm Calm - N/A   Clear
5:15 AM 50.5 °F 47.5 °F 89% 29.94 in 10.0 mi Calm Calm - N/A   Clear
5:35 AM 50.0 °F 46.9 °F 89% 29.94 in 10.0 mi Calm Calm - N/A   Clear
5:55 AM 49.6 °F 46.6 °F 89% 29.95 in 7.0 mi Calm Calm - N/A   Clear
6:15 AM 50.4 °F 47.5 °F 90% 29.95 in 10.0 mi North 3.5 mph - N/A   Clear
6:35 AM 49.3 °F 46.6 °F 90% 29.96 in 10.0 mi North 3.5 mph - 0.01 in   Clear
6:55 AM 51.3 °F 48.6 °F 90% 29.96 in 10.0 mi North 4.6 mph - 0.01 in   Clear
7:15 AM 51.6 °F 48.9 °F 90% 29.97 in 10.0 mi Calm Calm - N/A   Clear
7:35 AM 52.7 °F 50.0 °F 91% 29.98 in 10.0 mi Calm Calm - N/A   Clear
7:55 AM 56.1 °F 53.2 °F 90% 29.98 in 10.0 mi Calm Calm - N/A   Clear
8:15 AM 58.3 °F 54.9 °F 88% 29.99 in 10.0 mi NNE 3.5 mph - N/A   Clear
8:35 AM 61.0 °F 56.1 °F 84% 29.99 in 10.0 mi NNE 4.6 mph - N/A   Clear
8:55 AM 62.6 °F 55.4 °F 77% 30.00 in 7.0 mi NNE 3.5 mph - N/A   Clear
9:15 AM 63.7 °F 54.7 °F 72% 30.00 in 10.0 mi NNE 3.5 mph - N/A   Clear
9:35 AM 64.8 °F 54.5 °F 69% 30.00 in 10.0 mi Calm Calm - N/A   Clear
9:55 AM 66.7 °F 55.2 °F 66% 30.01 in 10.0 mi North 4.6 mph - N/A   Clear
10:15 AM 69.1 °F 55.2 °F 61% 30.01 in 10.0 mi NNE 3.5 mph - N/A   Clear
10:35 AM 70.9 °F 54.5 °F 56% 30.00 in 10.0 mi NE 3.5 mph - N/A   Clear
10:55 AM 72.7 °F 52.2 °F 48% 30.00 in 10.0 mi East 6.9 mph - N/A   Clear
11:15 AM 73.0 °F 50.9 °F 46% 30.00 in 10.0 mi East 9.2 mph - N/A   Clear
11:35 AM 73.9 °F 50.0 °F 43% 30.00 in 10.0 mi ENE 9.2 mph - N/A   Clear
11:55 AM 74.3 °F 50.4 °F 43% 29.99 in 10.0 mi NE 4.6 mph - N/A   Clear
12:15 PM 75.0 °F 49.5 °F 40% 29.99 in 10.0 mi NNE 4.6 mph - N/A   Clear
12:35 PM 75.6 °F 50.4 °F 41% 29.98 in 10.0 mi ENE 8.1 mph - N/A   Clear
12:55 PM 76.1 °F 50.7 °F 41% 29.97 in 10.0 mi ENE 4.6 mph - N/A   Clear
1:15 PM 76.8 °F 50.2 °F 39% 29.97 in 10.0 mi ENE 5.8 mph - N/A   Clear
1:35 PM 76.8 °F 50.0 °F 39% 29.96 in 10.0 mi Calm Calm - N/A   Clear
1:55 PM 77.2 °F 49.8 °F 38% 29.95 in 10.0 mi NE 4.6 mph - N/A   Clear
2:15 PM 77.9 °F 50.5 °F 38% 29.95 in 10.0 mi ENE 5.8 mph - N/A   Clear
2:35 PM 77.9 °F 49.8 °F 37% 29.94 in 10.0 mi East 6.9 mph - N/A   Clear
2:55 PM 78.4 °F 49.8 °F 37% 29.93 in 10.0 mi East 5.8 mph - N/A   Clear
3:15 PM 78.8 °F 51.1 °F 38% 29.93 in 10.0 mi ENE 9.2 mph - N/A   Clear
3:35 PM 78.6 °F 50.9 °F 38% 29.93 in 10.0 mi East 5.8 mph - N/A   Clear
3:55 PM 78.8 °F 51.1 °F 38% 29.93 in 10.0 mi ENE 6.9 mph - N/A   Clear
4:15 PM 78.1 °F 50.9 °F 39% 29.92 in 10.0 mi East 8.1 mph - N/A   Clear
4:35 PM 78.1 °F 51.1 °F 39% 29.91 in 10.0 mi East 9.2 mph - N/A   Clear
4:55 PM 77.5 °F 50.0 °F 38% 29.91 in 10.0 mi ENE 5.8 mph - N/A   Clear
5:15 PM 77.4 °F 51.1 °F 40% 29.91 in 10.0 mi ENE 5.8 mph - N/A   Clear
5:35 PM 76.3 °F 51.3 °F 41% 29.92 in 10.0 mi ENE 4.6 mph - N/A   Clear
5:55 PM 75.0 °F 52.9 °F 46% 29.92 in 10.0 mi NE 3.5 mph - N/A   Clear
6:15 PM 72.5 °F 55.2 °F 54% 29.92 in 10.0 mi NE 3.5 mph - N/A   Clear
6:35 PM 70.3 °F 55.6 °F 59% 29.92 in 10.0 mi Calm Calm - N/A   Clear
6:55 PM 67.5 °F 54.7 °F 64% 29.92 in 10.0 mi NNE 3.5 mph - N/A   Clear
7:15 PM 64.0 °F 54.9 °F 72% 29.93 in 10.0 mi Calm Calm - N/A   Clear
7:35 PM 62.1 °F 54.5 °F 76% 29.93 in 10.0 mi Calm Calm - N/A   Clear
7:55 PM 61.2 °F 54.5 °F 79% 29.93 in 10.0 mi Calm Calm - N/A   Clear
8:15 PM 58.6 °F 53.2 °F 82% 29.94 in 10.0 mi Calm Calm - N/A   Clear
8:35 PM 58.1 °F 53.1 °F 83% 29.94 in 10.0 mi Calm Calm - N/A   Clear
8:55 PM 57.2 °F 52.7 °F 85% 29.95 in 10.0 mi Calm Calm - N/A   Clear
9:15 PM 56.1 °F 51.8 °F 85% 29.95 in 10.0 mi Calm Calm - N/A   Clear
9:35 PM 55.4 °F 51.4 °F 87% 29.94 in 10.0 mi Calm Calm - N/A   Clear
9:55 PM 56.1 °F 52.5 °F 88% 29.95 in 10.0 mi Calm Calm - N/A   Clear
10:15 PM 56.5 °F 52.9 °F 88% 29.95 in 10.0 mi Calm Calm - N/A   Clear
10:35 PM 56.5 °F 52.9 °F 88% 29.95 in 10.0 mi Calm Calm - N/A   Clear
10:55 PM 55.6 °F 52.2 °F 88% 29.95 in 10.0 mi Calm Calm - N/A   Clear
11:15 PM 55.0 °F 51.8 °F 89% 29.95 in 10.0 mi Calm Calm - N/A   Clear
11:35 PM 54.7 °F 51.3 °F 88% 29.96 in 10.0 mi NE 5.8 mph - N/A   Clear
11:55 PM 55.6 °F 51.8 °F 87% 29.96 in 10.0 mi NE 5.8 mph - N/A   Clear